Location: Bijele Vode
(45.2833°N, 16.2000°E)
Time: 00:37:56
(UTC+00:00)

COSMOS 2406 - Pass Details

Date: 18 September 2020
Orbit: 844 x 863 km, 71.0° (Epoch: 26 October)

Event Time Altitude Azimuth Distance (km) Brightness Sun altitude
Rises 19:04:18 0° 340° (NNW) 3,414 7.1 -21.9°
Reaches altitude 10° 19:07:05 10° 351° (N) 2,475 6.1 -22.4°
Maximum altitude 19:11:59 29° 51° (NE) 1,506 4.3 -23.1°
Enters shadow 19:12:16 29° 57° (ENE) 1,510 4.2 -23.2°
